STARLINK-34617 (65015 NORAD) Tracking and Keplerian Element Data

This shows tracking and keplerian element data for the satellite.

Feedback or suggestion? Click here.




ElementValue
Catalog65015
NameSTARLINK-34617
Epoch Orbit2196
Epoch Day353.59598929
Epoch Year2025
RAAN306.4822
Inclination53.1622
Eccentricity0.0001135
Argument of Perigee101.6902
Mean Anonmoly258.4226
Mean Motion15.3018929
Decay Rate-0.00015251
L11 65015U 25161A 25353.59598929 -.00015251 00000+0 -50402-3 0 9995
L22 65015 53.1622 306.4822 0001135 101.6902 258.4226 15.30189290 21967



Live tracking and technical data element details for STARLINK-34617 (NORAD 65015). STARLINK-34617 can be tracked NOW for your location showing map with azimuth and elevation plus other details from your city location.







IsCatalogInMostPopularTable: catalog: 65015, numindb: 10
Update: records affected: 1



GetName: 65015 STARLINK-34617

Hit Count: updated at: Mon, 20 Apr 2026 10:34:52 GMT